Lid_Strength_Index
2 1 1 1 1 1 1 1 1 0 0 0 1 1 1 0 -0 -1 -1 -1 -1 -1 -1 -1 -1 -1 -1 -0 -0 0 0 1 -0 1 1 0 -0 -0 -0 -1 -1 -1 -1
2 1 1 1 1 1 1 1 1 0 0 0 0 0 0 0 -0 -1 -1 -1 -1 -1 -1 -1 -0 -1 0 -0 -0 0 1 1 -0 2 2 3 1 1 -0 -1 -1 -1 -1
3 2 1 2 1 1 1 1 1 0 0 -0 0 0 -0 -0 0 0 0 -0 -1 -1 -1 -1 -1 -1 -0 0 -0 -0 0 1 0 -0 2 4 4 2 0 -0 -0 -1 -0
2 2 1 1 2 1 1 1 1 1 0 -0 0 1 1 2 1 1 0 -0 -1 -1 -1 -1 -1 -1 -1 -1 -1 -1 -0 -0 1 0 -0 -0 1 4 4 1 -0 -0 -0
2 2 2 1 1 1 1 1 1 1 0 0 0 1 1 1 1 0 1 0 -0 -1 -1 -1 -1 -0 -0 -1 -1 -1 -1 -1 1 1 1 0 1 -0 2 4 2 0 -0
3 2 1 1 1 1 1 1 1 1 1 0 1 1 1 1 1 1 1 1 0 0 1 1 0 -0 -1 -0 -0 -1 -0 -1 -0 0 1 2 2 2 2 3 2 2 1
3 3 3 2 1 1 1 1 1 1 1 1 1 1 1 1 1 1 1 1 1 2 1 1 0 1 -1 -0 -0 -0 -0 -1 -0 -0 1 1 2 2 2 3 3 4 2
3 3 3 2 2 1 1 1 1 1 1 1 1 1 0 1 1 1 1 1 1 2 1 1 2 1 0 1 1 1 1 0 1 1 0 2 2 3 3 3 3 4 4
3 3 3 3 3 3 1 1 1 1 1 1 1 1 1 1 1 0 0 1 0 2 2 2 1 2 2 1 0 2 2 2 2 1 1 2 2 2 3 3 3 4 6
3 3 2 2 2 2 2 1 2 2 2 1 1 1 1 1 1 0 0 0 1 2 2 2 2 2 2 2 1 1 2 2 3 2 2 1 2 2 2 3 3 3 4
3 3 2 2 2 2 2 2 2 2 2 1 1 1 1 1 1 0 0 1 2 2 3 2 2 2 1 1 1 2 3 3 3 1 1 2 1 3 3 3 3 4 3
5 4 3 3 4 3 2 2 1 2 2 2 1 1 1 1 1 1 2 2 2 3 3 2 1 2 2 1 2 3 3 3 2 2 2 2 3 2 2 3 2 3 2
6 5 4 4 3 4 4 2 2 2 2 2 2 2 2 1 1 1 1 2 3 3 2 2 2 2 2 2 3 3 3 2 2 2 3 3 3 4 4 3 4 4 3
5 5 6 5 4 2 3 4 2 2 2 2 2 3 2 2 1 1 2 2 2 2 2 1 2 2 2 3 3 3 3 2 2 3 3 4 4 4 4 5 5 4 5
5 5 6 6 4 3 2 3 2 2 2 2 3 3 2 1 1 1 1 2 1 2 2 1 2 2 3 4 3 3 3 3 3 4 4 4 5 6 6 6 6 6 7
5 4 3 4 4 3 2 3 3 2 2 2 2 2 1 1 1 1 1 1 2 2 2 2 2 2 5 8 7 6 5 5 5 5 4 4 4 5 6 6 7 6 6
5 5 5 5 4 5 3 3 4 2 2 2 2 2 1 1 1 1 1 2 1 2 2 3 2 3 6 9 8 8 6 5 5 5 4 5 5 5 5 5 6 5 5
6 7 7 6 5 6 5 3 3 2 2 2 2 2 1 1 1 2 2 2 2 3 6 6 5 5 7 9 9 9 7 6 5 5 5 5 5 5 6 6 6 6 4
8 8 6 6 7 8 8 4 3 3 3 5 4 3 4 5 5 6 7 6 7 7 7 7 7 7 7 9 9 9 7 6 6 6 5 5 6 7 8 6 7 5 4
9 9 8 7 7 7 10 10 10 10 11 11 10 9 9 10 10 10 10 8 8 10 9 10 9 9 9 9 10 10 9 7 7 6 5 8 8 10 9 6 5 6 5
9 10 10 11 10 10 9 11 12 12 11 11 11 11 11 11 11 11 11 11 11 11 11 10 9 8 8 8 10 10 8 7 8 7 7 7 10 11 10 9 5 5 6
10 10 11 12 12 12 12 13 13 12 12 11 12 12 11 11 11 12 11 11 10 10 10 10 9 8 7 9 11 11 11 11 9 8 8 6 11 10 9 8 7 8 7
10 10 13 11 11 11 10 15 13 12 12 11 11 11 11 11 11 10 10 10 9 8 9 7 8 7 7 8 11 11 11 11 10 9 9 9 10 9 8 8 8 7 6
8 8 8 9 10 9 9 10 10 10 11 12 11 11 10 10 9 9 8 9 9 9 9 9 8 7 7 7 8 9 9 9 8 8 8 8 9 9 8 8 7 6 6
8 7 8 8 9 8 9 9 9 10 11 10 10 9 8 8 8 9 9 9 10 11 10 10 9 9 9 10 12 11 10 10 10 10 8 7 6 6 6 6 6 7 7
7 7 7 8 8 7 8 8 8 8 9 11 11 11 10 9 9 8 8 11 11 11 10 11 10 8 10 10 10 10 10 11 10 10 9 8 7 7 7 8 8 8 8